User: anonymous   Login
Location: Unspecified
(0.0000°N, 0.0000°E)
Time: 15:50:36
(UTC+00:00)
Language:

PAYLOAD D - Orbit

View from above orbital plane
View from above orbital plane
View from above satellite
View from above satellite

Ground track
Ground track

The orbit data is extracted from the following two-line orbital elements,

1 27058U 01058D   18260.70178152 -.00000005  00000-0 -86591-4 0  9994
2 27058  82.5338 216.9880 0002553 308.7958  51.2906 12.62021187770379
Epoch (UTC): 17 September 2018 16:50:33
Eccentricity: 0.0002553
inclination: 82.5338°
perigee height: 1412 km
apogee height: 1416 km
right ascension of ascending node: 216.9880°
argument of perigee: 308.7958°
revolutions per day: 12.62021187
mean anomaly at epoch: 51.2906°
orbit number at epoch: 77037

The dashed part of the orbit path shows where the satellite is in the earth's shadow,  

DLR